"Pseudo-MPEC" for P10NUNL

Created 2019 May 19 15:07:22 UT using Find_Orb

Click here for an explanation of pseudo-MPECs

 
 Astrometry: 
     P10NUNL  C2019 05 12qk(3(Astrometry5.L8S.0nlmgxje.O*k-YqNL2Hm]mvJOeXVWedF51
     P10NUNL  C2019 05 12BYV5F.%redacted;1p.pb;O3jUylI\_yclick,id?Eu*/=@R(1*yF51
     P10NUNL  C2019 05 12?;[)(%9(qb0;%yYxxT(.L(X?0jIcc#Xx,a#yit;a_Vf85d7DGypGF51
     P10NUNL  C2019 05 12[(@Ehereri/6FforA4-(8,KfH3KXSHexplanationr/Fs.ptCx;hF51

Station data:
(F51) Pan-STARRS 1, Haleakala  (N20.707235 W156.255910)  US/Hawaii.
   Observers N. Primak, A. Schultz, S. Watters, J. Thiel, T. Goggia. Measurer
   PS1 Science Consortium. 1.8-m Ritchey-Chrétien + CCD.

Orbital elements:  P10NUNL
   Perihelion 2019 Jun 12.160408 +/- 53.5 TT =  3:50:59 (JD 2458646.660408)
Epoch 2019 May 12.0 TT = JDT 2458615.5   Earth MOID: 0.2678   AutoNEOCP
M 352.68108161 +/- 43               (J2000 ecliptic)
n   0.23487877 +/- 0.317            Peri.  154.63389 +/- 100
a   2.60159808 +/- 2.34             Node    86.75029 +/- 57
e   0.5180767 +/- 0.264             Incl.   26.70694 +/- 15
P   4.20                   H 20.9   G  0.15   U 12.0  SR
q 1.25377056 +/- 0.427    Q 3.94942560 +/- 31
From 4 observations 2019 May 12 (34.0 min); mean residual 0".02
Residuals in arcseconds: 
190512 F51  .01-  .03-    190512 F51  .03-  .00     
190512 F51  .02+  .04+    190512 F51  .01+  .02-    

Ephemerides (geocentric):
Date (UTC) HH   RA              Dec         delta   r     elong  mag " sig PA
---- -- -- --  -------------   -----------  ------ ------ -----  --- ---- ---
2019 05 19 15  13 40 58.832   +46 07 37.05  .52630 1.2803 108.5 21.9 9168  78
2019 05 19 16  13 40 58.004   +46 05 51.70  .52613 1.2802 108.6 21.9 9441  78
2019 05 19 17  13 40 57.181   +46 04 06.20  .52597 1.2801 108.6 21.9 9727  78
2019 05 19 18  13 40 56.363   +46 02 20.56  .52581 1.2800 108.6 21.9 167'  78
2019 05 19 19  13 40 55.549   +46 00 34.77  .52564 1.2800 108.6 21.9 172'  78
2019 05 19 20  13 40 54.741   +45 58 48.83  .52548 1.2799 108.6 21.9 178'  78
2019 05 19 21  13 40 53.938   +45 57 02.75  .52532 1.2798 108.6 21.9 184'  79
2019 05 19 22  13 40 53.139   +45 55 16.52  .52515 1.2797 108.6 21.9 190'  79
2019 05 19 23  13 40 52.345   +45 53 30.14  .52499 1.2796 108.6 21.9 196'  79
2019 05 20 00  13 40 51.557   +45 51 43.61  .52483 1.2795 108.6 21.9 203'  79
2019 05 20 01  13 40 50.773   +45 49 56.94  .52467 1.2794 108.6 21.9 210'  79
2019 05 20 02  13 40 49.994   +45 48 10.12  .52450 1.2793 108.6 21.9 218'  79
2019 05 20 03  13 40 49.220   +45 46 23.16  .52434 1.2792 108.6 21.9 226'  80
2019 05 20 04  13 40 48.450   +45 44 36.05  .52418 1.2791 108.6 21.9 234'  80
2019 05 20 05  13 40 47.686   +45 42 48.79  .52402 1.2790 108.6 21.9 243'  80
2019 05 20 06  13 40 46.927   +45 41 01.38  .52386 1.2790 108.6 21.9 252'  80
2019 05 20 07  13 40 46.172   +45 39 13.83  .52369 1.2789 108.6 21.9 262'  80
2019 05 20 08  13 40 45.423   +45 37 26.13  .52353 1.2788 108.6 21.9 272'  80
2019 05 20 09  13 40 44.678   +45 35 38.28  .52337 1.2787 108.6 21.9 283'  81
2019 05 20 10  13 40 43.938   +45 33 50.29  .52321 1.2786 108.6 21.9 295'  81
2019 05 20 11  13 40 43.204   +45 32 02.15  .52305 1.2785 108.6 21.9 307'  81
2019 05 20 12  13 40 42.474   +45 30 13.86  .52289 1.2784 108.6 21.9 320'  81
2019 05 20 13  13 40 41.749   +45 28 25.42  .52272 1.2783 108.6 21.9 333'  81
2019 05 20 14  13 40 41.029   +45 26 36.84  .52256 1.2782 108.6 21.9 347'  81
2019 05 20 15  13 40 40.314   +45 24 48.10  .52240 1.2781 108.6 21.9 362'  82
2019 05 20 16  13 40 39.603   +45 22 59.23  .52224 1.2781 108.6 21.9 377'  82
2019 05 20 17  13 40 38.898   +45 21 10.20  .52208 1.2780 108.6 21.9 392'  82
2019 05 20 18  13 40 38.198   +45 19 21.03  .52192 1.2779 108.6 21.8 409'  82
2019 05 20 19  13 40 37.502   +45 17 31.70  .52176 1.2778 108.6 21.8 425'  82
2019 05 20 20  13 40 36.812   +45 15 42.24  .52160 1.2777 108.6 21.8 442'  82
2019 05 20 21  13 40 36.126   +45 13 52.62  .52144 1.2776 108.6 21.8 459'  82
2019 05 20 22  13 40 35.446   +45 12 02.85  .52128 1.2775 108.6 21.8 477'  82
2019 05 20 23  13 40 34.770   +45 10 12.94  .52112 1.2774 108.6 21.8 494'  82
2019 05 21 00  13 40 34.099   +45 08 22.88  .52095 1.2774 108.6 21.8 512'  82
2019 05 21 01  13 40 33.433   +45 06 32.67  .52079 1.2773 108.6 21.8 530'  82
2019 05 21 02  13 40 32.772   +45 04 42.32  .52063 1.2772 108.6 21.8 547'  82
2019 05 21 03  13 40 32.116   +45 02 51.82  .52047 1.2771 108.6 21.8 564'  82
2019 05 21 04  13 40 31.465   +45 01 01.16  .52031 1.2770 108.6 21.8 581'  82
2019 05 21 05  13 40 30.819   +44 59 10.36  .52015 1.2769 108.6 21.8 597'  82
2019 05 21 06  13 40 30.178   +44 57 19.42  .51999 1.2768 108.6 21.8 613'  82
2019 05 21 07  13 40 29.541   +44 55 28.32  .51984 1.2767 108.6 21.8 629'  81
2019 05 21 08  13 40 28.910   +44 53 37.08  .51968 1.2767 108.6 21.8 644'  81
2019 05 21 09  13 40 28.284   +44 51 45.69  .51952 1.2766 108.6 21.8 658'  81
2019 05 21 10  13 40 27.662   +44 49 54.15  .51936 1.2765 108.6 21.8 672'  81
2019 05 21 11  13 40 27.046   +44 48 02.46  .51920 1.2764 108.6 21.8 686'  80
2019 05 21 12  13 40 26.434   +44 46 10.62  .51904 1.2763 108.6 21.8 699'  80
2019 05 21 13  13 40 25.827   +44 44 18.64  .51888 1.2762 108.6 21.8 711'  79
2019 05 21 14  13 40 25.226   +44 42 26.50  .51872 1.2761 108.6 21.8 723'  79